STARLINK-5455 (55668 NORAD) Tracking and Keplerian Element Data

This shows tracking and keplerian element data for the satellite.

Feedback or suggestion? Click here.




ElementValue
Catalog55668
NameSTARLINK-5455
Epoch Orbit625
Epoch Day85.16967558
Epoch Year2023
RAAN47.5887
Inclination70.0024
Eccentricity0.0003284
Argument of Perigee268.4638
Mean Anonmoly91.6181
Mean Motion15.69937416
Decay Rate9.51E-06
L11 55668U 23021AS 23085.16967558 .00000951 00000+0 96711-5 0 9996
L22 55668 70.0024 47.5887 0003284 268.4638 91.6181 15.69937416 6258



Live tracking and technical data element details for STARLINK-5455 (NORAD 55668). STARLINK-5455 can be tracked NOW for your location showing map with azimuth and elevation plus other details from your city location.







IsCatalogInMostPopularTable: catalog: 55668, numindb: 2
Update: records affected: 1



GetName: 55668 STARLINK-5455

Hit Count: updated at: Tue, 28 Mar 2023 01:30:25 GMT